{"data":{"norad_id":24278,"epoch":"2026-05-25T02:17:12.146208Z","epoch_age_seconds":70363,"freshness":"FRESH","line1":"1 24278U 96046B   26145.09527947 -.00000010  00000+0  23951-4 0  9994","line2":"2 24278  98.5264 357.1281 0350287 156.2219 205.5556 13.53273136470044","mean_motion":13.53273136,"eccentricity":0.0350287,"inclination_deg":98.5264,"raan_deg":357.1281,"arg_perigee_deg":156.2219,"mean_anomaly_deg":205.5556,"bstar":2.3951e-5,"rev_number":47004,"period_min":106.40867402839,"perigee_km":799.6835699582,"apogee_km":1320.7969406852,"semimajor_km":7438.3772553217,"source":"CELESTRAK","updated_at":"2026-05-25T13:38:23.254707Z"}}